Regional Weather Roundup
Issued by NWS

Home | Current Version | Previous Version | Text Only | Print | Product List | Glossary Off
Versions: 1 2 3 4 5 6 7 8 9 10 11 12 13 14 15 16 17 18 19 20 21 22 23 24 25 26 27 28 29 30 31 32 33 34 35 36 37 38 39 40 41 42 43 44 45 46 47 48 49 50

000
ASUS43 KLSX 151459
RWRMO

WEATHER SUMMARY FOR MISSOURI
NATIONAL WEATHER SERVICE SPRINGFIELD MO
1000 AM CDT TUE APR 15 2014

NOTE: "FAIR" INDICATES FEW OR NO CLOUDS BELOW 12,000 FEET WITH NO
       SIGNIFICANT WEATHER AND/OR OBSTRUCTIONS TO VISIBILITY.
       CURRENT SKY AND/OR WEATHER CONDITIONS ARE NOT AVAILABLE FOR
       CHILLICOTHE AND FARMINGTON.

MOZ001>031-035>038-043-044-053-054-151600-
...NORTHERN AND WESTERN MISSOURI...

CITY           SKY/WX    TMP DP  RH WIND       PRES   REMARKS
KANSAS CTY INT MOSUNNY   41  22  46 W7        30.22R
KANSAS C DTWN  SUNNY     42  24  49 VRB3      30.22F
LEE`S SUMMIT   SUNNY     40  22  48 CALM      30.21F
ST JOSEPH      SUNNY     38  26  62 SW5       30.23R
CHILLICOTHE      N/A     38  22  52 SW6       30.24R
KIRKSVILLE     SUNNY     37  15  40 W9        30.21R

$$
MOZ066>068-077>081-088>096-101>105-151600-
...SOUTHWEST MISSOURI...

CITY           SKY/WX    TMP DP  RH WIND       PRES   REMARKS
SPRINGFIELD    SUNNY     38  21  50 SE5       30.23S
JOPLIN         SUNNY     42  24  49 SE5       30.24R

$$
MOZ032>034-039>042-045>050-055>058-069>072-151600-
...CENTRAL MISSOURI...

CITY           SKY/WX    TMP DP  RH WIND       PRES   REMARKS
COLUMBIA       SUNNY     38  19  46 N6        30.23R
JEFFERSON CITY SUNNY     37  15  40 VRB3      30.24S
ROLLA          SUNNY     37  20  50 NW8       30.20S
SEDALIA        SUNNY     40  23  50 W7        30.25R
OSAGE BEACH    SUNNY     37  18  44 SW6       30.26R

$$
MOZ051-052-059>065-151600-
...EAST CENTRAL MISSOURI...

CITY           SKY/WX    TMP DP  RH WIND       PRES   REMARKS
ST LOUIS INTL  SUNNY     39  18  42 N12G20    30.22S
SPIRIT OF STL  SUNNY     38  18  44 NW12      30.22S
ST CHARLES     SUNNY     39  19  44 N13       30.22S

$$
MOZ072>076-082>087-097>100-106>115-151600-
...SOUTH CENTRAL AND SOUTHEAST MISSOURI...

CITY           SKY/WX    TMP DP  RH WIND       PRES   REMARKS
CAPE GIRARDEAU SUNNY     41  20  43 N21G28    30.22R
FARMINGTON     SUNNY     37  16  41 N14G22    30.23R WCI  29
POPLAR BLUFF   SUNNY     41  18  39 MISG      30.22R
WEST PLAINS    SUNNY     40  20  44 N9G17     30.23R

$$



USA.gov is the U.S. government's official web portal to all federal, state and local government web resources and services.